Location: Newark
(7.0858°N, 171.3717°E)
Time: 03:33:31
(UTC+00:00)

Vanguard 2 - Pass Details

Date: 30 November 2020
Orbit: 553 x 2937 km, 32.9° (Epoch: 26 January)

Event Time Altitude Azimuth Distance (km) Brightness Sun altitude
Rises 09:17:55 0° 243° (WSW) 4,743 12.4 -43.0°
Reaches altitude 10° 09:24:35 10° 212° (SSW) 4,399 11.8 -44.5°
Maximum altitude 09:28:01 11° 195° (SSW) 4,571 11.7 -45.3°
Drops below altitude 10° 09:31:49 10° 179° (S) 4,977 11.8 -46.2°
Sets 09:41:32 0° 151° (SSE) 6,535 12.2 -48.3°
